TimeCDT,TemperatureF,Dew PointF,Humidity,Sea Level PressureIn,VisibilityMPH,Wind Direction,Wind SpeedMPH,Gust SpeedMPH,PrecipitationIn,Events,Conditions,WindDirDegrees,DateUTC
12:15 AM,77.0,67.3,72,30.03,10.0,South,4.6,-,N/A,,Scattered Clouds,170,2012-10-15 05:15:00
12:35 AM,76.3,67.3,74,30.02,10.0,South,6.9,-,N/A,,Mostly Cloudy,180,2012-10-15 05:35:00
12:55 AM,76.1,67.3,74,30.02,10.0,South,4.6,-,N/A,,Mostly Cloudy,180,2012-10-15 05:55:00
1:15 AM,75.6,67.3,75,30.02,10.0,Calm,Calm,-,N/A,,Mostly Cloudy,0,2012-10-15 06:15:00
1:35 AM,75.4,67.3,76,30.02,10.0,SSE,3.5,-,N/A,,Overcast,160,2012-10-15 06:35:00
1:55 AM,75.4,67.3,76,30.02,10.0,SSE,3.5,-,N/A,,Overcast,160,2012-10-15 06:55:00
2:15 AM,74.7,67.1,77,30.02,10.0,Calm,Calm,-,N/A,,Scattered Clouds,0,2012-10-15 07:15:00
2:35 AM,74.3,67.1,78,30.02,10.0,SSE,3.5,-,N/A,,Clear,150,2012-10-15 07:35:00
2:55 AM,73.8,67.1,80,30.01,10.0,Calm,Calm,-,N/A,,Clear,0,2012-10-15 07:55:00
3:15 AM,73.6,66.9,80,30.01,10.0,Calm,Calm,-,N/A,,Clear,0,2012-10-15 08:15:00
3:35 AM,73.0,66.7,81,30.01,10.0,Calm,Calm,-,N/A,,Clear,0,2012-10-15 08:35:00
3:55 AM,71.4,66.2,84,30.01,10.0,Calm,Calm,-,N/A,,Clear,0,2012-10-15 08:55:00
4:15 AM,71.1,66.2,85,30.01,10.0,Calm,Calm,-,N/A,,Clear,0,2012-10-15 09:15:00
4:35 AM,70.5,65.8,85,30.01,10.0,Calm,Calm,-,N/A,,Mostly Cloudy,0,2012-10-15 09:35:00
4:55 AM,70.9,66.2,85,30.00,10.0,Calm,Calm,-,N/A,,Overcast,0,2012-10-15 09:55:00
5:15 AM,70.7,65.7,84,30.00,10.0,Calm,Calm,-,N/A,,Mostly Cloudy,0,2012-10-15 10:15:00
5:35 AM,70.7,66.0,85,30.00,10.0,Calm,Calm,-,N/A,,Mostly Cloudy,0,2012-10-15 10:35:00
5:55 AM,70.2,65.7,86,30.01,10.0,Calm,Calm,-,N/A,,Scattered Clouds,0,2012-10-15 10:55:00
6:15 AM,70.2,65.7,86,30.01,10.0,Calm,Calm,-,N/A,,Scattered Clouds,0,2012-10-15 11:15:00
6:35 AM,69.8,65.5,86,30.01,10.0,Calm,Calm,-,N/A,,Clear,0,2012-10-15 11:35:00
6:55 AM,69.8,65.7,87,30.01,10.0,Calm,Calm,-,N/A,,Mostly Cloudy,0,2012-10-15 11:55:00
7:15 AM,69.8,65.7,87,30.02,10.0,Calm,Calm,-,N/A,,Mostly Cloudy,0,2012-10-15 12:15:00
7:35 AM,70.0,65.7,86,30.02,10.0,NNE,4.6,-,N/A,,Mostly Cloudy,30,2012-10-15 12:35:00
7:55 AM,70.2,65.7,86,30.02,10.0,East,3.5,-,N/A,,Overcast,80,2012-10-15 12:55:00
8:15 AM,70.9,66.0,85,30.03,10.0,NE,3.5,-,N/A,,Overcast,40,2012-10-15 13:15:00
8:35 AM,71.8,66.2,83,30.04,10.0,NNE,5.8,-,N/A,,Overcast,30,2012-10-15 13:35:00
8:55 AM,72.9,66.4,80,30.04,10.0,NE,3.5,-,N/A,,Overcast,50,2012-10-15 13:55:00
9:15 AM,74.1,66.4,77,30.06,10.0,Calm,Calm,-,N/A,,Overcast,0,2012-10-15 14:15:00
9:35 AM,76.1,66.7,73,30.06,10.0,ESE,3.5,-,N/A,,Overcast,120,2012-10-15 14:35:00
9:55 AM,77.9,66.2,67,30.06,10.0,Calm,Calm,-,N/A,,Scattered Clouds,0,2012-10-15 14:55:00
10:15 AM,78.1,66.6,68,30.07,10.0,NNE,4.6,-,N/A,,Mostly Cloudy,20,2012-10-15 15:15:00
10:35 AM,78.4,66.0,66,30.07,10.0,Calm,Calm,-,N/A,,Overcast,0,2012-10-15 15:35:00
10:55 AM,79.3,66.0,64,30.07,10.0,Calm,Calm,-,N/A,,Overcast,0,2012-10-15 15:55:00
11:15 AM,79.7,66.0,63,30.07,10.0,Calm,Calm,-,N/A,,Overcast,0,2012-10-15 16:15:00
11:35 AM,82.0,63.9,54,30.06,10.0,SE,3.5,-,N/A,,Mostly Cloudy,140,2012-10-15 16:35:00
11:55 AM,84.2,61.2,46,30.05,10.0,Calm,Calm,-,N/A,,Mostly Cloudy,0,2012-10-15 16:55:00
12:15 PM,84.7,64.2,50,30.04,10.0,North,5.8,-,N/A,,Mostly Cloudy,10,2012-10-15 17:15:00
12:35 PM,84.6,63.5,49,30.03,10.0,NW,3.5,-,N/A,,Mostly Cloudy,320,2012-10-15 17:35:00
1:15 PM,86.2,62.4,45,30.01,10.0,NNE,5.8,-,N/A,,Scattered Clouds,30,2012-10-15 18:15:00
1:35 PM,85.5,62.4,46,30.00,10.0,Calm,Calm,-,N/A,,Scattered Clouds,0,2012-10-15 18:35:00
1:55 PM,86.0,62.8,46,29.99,10.0,NE,5.8,-,N/A,,Mostly Cloudy,40,2012-10-15 18:55:00
2:15 PM,86.4,62.6,45,29.98,10.0,NNW,3.5,-,N/A,,Mostly Cloudy,340,2012-10-15 19:15:00
2:35 PM,88.3,61.3,40,29.96,10.0,East,8.1,-,N/A,,Mostly Cloudy,100,2012-10-15 19:35:00
2:55 PM,89.2,61.9,40,29.96,10.0,Calm,Calm,-,N/A,,Mostly Cloudy,0,2012-10-15 19:55:00
3:15 PM,87.4,62.2,43,29.94,10.0,East,8.1,-,N/A,,Mostly Cloudy,80,2012-10-15 20:15:00
3:35 PM,88.7,61.3,40,29.94,10.0,ENE,8.1,-,N/A,,Scattered Clouds,60,2012-10-15 20:35:00
3:55 PM,89.1,61.2,39,29.93,10.0,ENE,9.2,-,N/A,,Scattered Clouds,60,2012-10-15 20:55:00
4:15 PM,88.7,61.2,40,29.92,10.0,NE,5.8,-,N/A,,Mostly Cloudy,50,2012-10-15 21:15:00
4:35 PM,87.1,61.7,42,29.92,10.0,NNE,8.1,-,N/A,,Mostly Cloudy,20,2012-10-15 21:35:00
4:55 PM,86.7,61.5,43,29.92,10.0,ENE,6.9,-,N/A,,Mostly Cloudy,70,2012-10-15 21:55:00
5:15 PM,86.2,61.0,43,29.92,10.0,NE,5.8,-,N/A,,Mostly Cloudy,50,2012-10-15 22:15:00
5:35 PM,86.0,63.1,46,29.92,10.0,East,9.2,-,N/A,,Mostly Cloudy,80,2012-10-15 22:35:00
5:55 PM,84.4,63.9,50,29.93,10.0,East,12.7,-,N/A,,Overcast,90,2012-10-15 22:55:00
6:15 PM,83.3,63.3,51,29.93,10.0,East,10.4,-,N/A,,Overcast,80,2012-10-15 23:15:00
6:35 PM,82.6,63.3,52,29.93,10.0,East,9.2,16.1,N/A,,Overcast,90,2012-10-15 23:35:00
6:55 PM,81.1,63.7,55,29.94,10.0,East,11.5,-,N/A,,Scattered Clouds,90,2012-10-15 23:55:00
7:15 PM,80.1,62.6,55,29.95,10.0,East,9.2,-,N/A,,Clear,90,2012-10-16 00:15:00
7:35 PM,79.7,61.9,54,29.96,10.0,East,9.2,-,N/A,,Clear,90,2012-10-16 00:35:00
7:55 PM,79.5,61.7,54,29.97,10.0,East,6.9,-,N/A,,Clear,100,2012-10-16 00:55:00
8:15 PM,79.2,60.4,53,29.97,10.0,East,5.8,-,N/A,,Clear,100,2012-10-16 01:15:00
8:35 PM,78.8,61.5,55,29.97,10.0,East,6.9,-,N/A,,Clear,90,2012-10-16 01:35:00
8:55 PM,78.1,62.2,58,29.97,10.0,East,5.8,-,N/A,,Clear,90,2012-10-16 01:55:00
9:15 PM,77.9,63.1,60,29.98,10.0,East,5.8,-,N/A,,Clear,80,2012-10-16 02:15:00
9:35 PM,77.4,64.4,64,29.98,10.0,East,3.5,-,N/A,,Clear,90,2012-10-16 02:35:00
9:55 PM,77.0,65.3,67,29.98,10.0,East,6.9,-,N/A,,Clear,80,2012-10-16 02:55:00
10:15 PM,76.3,66.4,71,29.98,10.0,East,5.8,-,N/A,,Scattered Clouds,90,2012-10-16 03:15:00
10:35 PM,76.1,67.5,74,29.97,10.0,East,3.5,-,N/A,,Mostly Cloudy,80,2012-10-16 03:35:00
10:55 PM,75.2,68.0,78,29.97,10.0,NE,3.5,-,N/A,,Scattered Clouds,50,2012-10-16 03:55:00
11:15 PM,74.3,68.4,82,29.97,10.0,NE,3.5,-,N/A,,Mostly Cloudy,40,2012-10-16 04:15:00
11:35 PM,73.9,68.2,82,29.97,10.0,Calm,Calm,-,N/A,,Overcast,0,2012-10-16 04:35:00
11:55 PM,74.1,68.4,82,29.97,10.0,Calm,Calm,-,N/A,,Overcast,0,2012-10-16 04:55:00